Weather Roundup
Issued by NWS Corpus Christi, TX

Home | Current Version | Previous Version | Text Only | Print | Product List | Glossary On
Versions: 1 2 3 4 5 6 7 8 9 10 11 12 13 14 15 16 17 18 19 20 21 22 23 24 25 26 27 28 29 30 31 32 33 34 35 36 37 38 39 40 41 42 43 44 45 46 47 48 49 50
000
ASUS44 KCRP 172110
HRRCRP

SOUTH TEXAS REGIONAL WEATHER ROUNDUP
NATIONAL WEATHER SERVICE CORPUS CHRISTI TX
400 PM CDT WED SEP 17 2014


TXZ229>244-172200-
...CORPUS CHRISTI AREA OBSERVATIONS...

CITY           SKY/WX    TMP DP  RH WIND       PRES   REMARKS
CORPUS CHRISTI PTSUNNY   91  75  59 S8        29.85F HX 101
NAS CORPUS CHR PTSUNNY   89  78  70 SE13      29.86F HX 103
ROCKPORT       PTSUNNY   89  75  63 S10       29.86F HX  99
KINGSVILLE NAS PTSUNNY   92  75  57 S7        29.85F HX 103
ALICE          PTSUNNY   92  71  50 SW8       29.85F HX  98
FALFURRIAS     PTSUNNY  N/A N/A N/A S9        29.85S
$$

...VICTORIA AREA OBSERVATIONS...

CITY           SKY/WX    TMP DP  RH WIND       PRES   REMARKS
VICTORIA       CLOUDY    94  72  48 S10       29.86F HX 102
BEEVILLE       PTSUNNY   91  70  50 S10       29.85F HX  96
PLEASANTON     CLOUDY    88  72  59 E12G17    29.87S HX  94
SAN ANTONIO    RAIN      79  75  87 NW9       29.89F
$$

...LAREDO AREA OBSERVATIONS...

CITY           SKY/WX    TMP DP  RH WIND       PRES   REMARKS
LAREDO         PTSUNNY   93  70  47 S9        29.86F HX  98
COTULLA        PTSUNNY   95  68  41 SW7       29.84F HX  99
DEL RIO        MOSUNNY   89  69  51 S3        29.86F HX  93
MCALLEN        MOSUNNY   90  74  59 SE15      29.85F HX  99
HEBBRONVILLE     N/A     90  68  48 SE6       29.87F HX  93
$$

...OTHER TEXAS OBSERVATIONS...

CITY           SKY/WX    TMP DP  RH WIND       PRES   REMARKS
BROWNSVILLE    MOSUNNY   90  77  65 SE14G20   29.86F HX 103
HOUSTON        CLOUDY    76  74  93 SE10      29.90F
COL. STATION   PTSUNNY   89  70  53 CALM      29.87F HX  94
AUSTIN         PTSUNNY   84  72  67 SE13      29.87F
WACO           MOSUNNY   94  69  44 CALM      29.86F HX  99
FORT WORTH     PTSUNNY   95  65  37 SE9       29.86F HX  97
WICHITA FALLS  MOSUNNY   91  68  46 CALM      29.87F HX  95
LUBBOCK        PTSUNNY   78  67  68 E7        29.98F THUNDER
EL PASO        MOSUNNY   83  63  50 NE7       29.99F
$$

...MARINE OBSERVATIONS...

STATION/POSITION TIME  SKY/WX   TEMP    WIND        PRES    VSBY  WAVE   SWELL
                                AIR SEA DIR/SP/G                  HT/PER HT/PER
                 (UTC)          (F)     (DEG/KT/KT) (MB)    (MI)  (FT/S) (FT/S)
PORT ARANSAS     2100            84 85  150/ 12/ 14 1012.3F
BUOY 90 E PORT A 2100            83 86   CALM  /  2 1012.8F         2/ 6   2/ 6
BUOY 45 SE BAFFI 2100            84 85  170/  8/ 10 1011.2F         2/ 6   2/ 6
BUOY 200 E PT IS 2100            85 86  210/  6/  8 1012.5F         2/ 6   2/ 6
BUOY 15 E GALVES 2100            79 84  100/ 10/ 12 1012.4F         2/ 6   2/ 6
$$


USA.gov is the U.S. government's official web portal to all federal, state and local government web resources and services.